When you browse on this site, cookies collect data to enhance your experience and personalize the content and advertising you see.
Visit our Privacy Policy to learn more. By continuing to use the site, you agree to this use of cookies and data.
EN

Hourly Weather Sharky

Today, 9 July, Thursday

Time Temperature Precipitation Wind Pressure Humidity
00:00 +12°C° 0 mm 1 mps 735 mmHg 87%
01:00 +12°C° 0 mm 2 mps 735 mmHg 88%
02:00 +12°C° 0 mm 2 mps 735 mmHg 88%
03:00 +12°C° 0 mm 2 mps 735 mmHg 87%
04:00 +12°C° 0 mm 2 mps 735 mmHg 87%
05:00 +12°C° 0 mm 2 mps 735 mmHg 86%
06:00 +13°C° 0.1 mm 2 mps 735 mmHg 86%
07:00 +14°C° 0.1 mm 2 mps 735 mmHg 85%
08:00 +14°C° 0 mm 2 mps 736 mmHg 81%
09:00 +14°C° 0.2 mm 2 mps 736 mmHg 84%
10:00 +14°C° 0.2 mm 1 mps 736 mmHg 88%
11:00 +14°C° 0.2 mm 1 mps 737 mmHg 91%
12:00 +16°C° 0 mm 2 mps 737 mmHg 85%
13:00 +17°C° 0 mm 2 mps 737 mmHg 78%
14:00 +19°C° 0 mm 2 mps 737 mmHg 72%
15:00 +20°C° 0 mm 2 mps 737 mmHg 71%
16:00 +20°C° 0 mm 2 mps 737 mmHg 70%
17:00 +20°C° 0 mm 2 mps 736 mmHg 69%
18:00 +20°C° 0 mm 1 mps 736 mmHg 73%
19:00 +19°C° 0 mm 1 mps 736 mmHg 78%
20:00 +16°C° 0 mm 1 mps 736 mmHg 82%
21:00 +16°C° 0 mm 1 mps 736 mmHg 84%
22:00 +15°C° 0 mm 1 mps 736 mmHg 87%
23:00 +14°C° 0 mm 1 mps 736 mmHg 89%

Tomorrow, 10 July, Friday

Time Temperature Precipitation Wind Pressure Humidity
00:00 +14°C° 0 mm 1 mps 736 mmHg 90%
01:00 +14°C° 0 mm 1 mps 736 mmHg 91%
02:00 +14°C° 0 mm 2 mps 736 mmHg 92%
03:00 +14°C° 0 mm 2 mps 736 mmHg 92%
04:00 +14°C° 0 mm 2 mps 736 mmHg 92%
05:00 +14°C° 0 mm 2 mps 736 mmHg 93%
06:00 +16°C° 0 mm 3 mps 736 mmHg 87%
07:00 +18°C° 0 mm 3 mps 736 mmHg 82%
08:00 +19°C° 0 mm 3 mps 737 mmHg 77%
09:00 +21°C° 0 mm 3 mps 737 mmHg 73%
10:00 +22°C° 0 mm 3 mps 737 mmHg 69%
11:00 +25°C° 0 mm 3 mps 737 mmHg 65%
12:00 +26°C° 0 mm 3 mps 736 mmHg 63%
13:00 +26°C° 0 mm 3 mps 736 mmHg 61%
14:00 +27°C° 0 mm 3 mps 736 mmHg 60%
15:00 +27°C° 0 mm 3 mps 736 mmHg 61%
16:00 +27°C° 0 mm 3 mps 736 mmHg 62%
17:00 +27°C° 0 mm 3 mps 736 mmHg 63%
18:00 +26°C° 0 mm 3 mps 736 mmHg 68%
19:00 +24°C° 0 mm 2 mps 735 mmHg 73%
20:00 +21°C° 0 mm 2 mps 735 mmHg 79%
21:00 +21°C° 0 mm 2 mps 735 mmHg 79%
22:00 +20°C° 0 mm 2 mps 736 mmHg 80%
23:00 +19°C° 0 mm 2 mps 736 mmHg 81%

Day after tomorrow, 11 July, Saturday

Time Temperature Precipitation Wind Pressure Humidity
00:00 +19°C° 0 mm 3 mps 736 mmHg 82%
01:00 +18°C° 0 mm 3 mps 736 mmHg 83%
02:00 +18°C° 0 mm 3 mps 735 mmHg 84%
03:00 +18°C° 0 mm 3 mps 735 mmHg 85%
04:00 +17°C° 0 mm 3 mps 735 mmHg 87%
05:00 +17°C° 0 mm 3 mps 735 mmHg 89%
06:00 +18°C° 0 mm 4 mps 735 mmHg 84%
07:00 +20°C° 0 mm 4 mps 736 mmHg 79%
08:00 +22°C° 0 mm 4 mps 736 mmHg 75%
09:00 +23°C° 0 mm 5 mps 736 mmHg 71%
10:00 +25°C° 0 mm 5 mps 736 mmHg 67%
11:00 +27°C° 0 mm 6 mps 736 mmHg 63%
12:00 +27°C° 0 mm 6 mps 736 mmHg 61%
13:00 +28°C° 0 mm 6 mps 736 mmHg 60%
14:00 +28°C° 0 mm 5 mps 735 mmHg 59%
15:00 +28°C° 0 mm 5 mps 735 mmHg 61%
16:00 +28°C° 0 mm 4 mps 735 mmHg 62%
17:00 +28°C° 0 mm 4 mps 734 mmHg 64%
18:00 +26°C° 0 mm 4 mps 734 mmHg 69%
19:00 +24°C° 0 mm 3 mps 734 mmHg 75%
20:00 +22°C° 0 mm 3 mps 734 mmHg 80%
21:00 +21°C° 0 mm 3 mps 734 mmHg 81%
22:00 +20°C° 0 mm 3 mps 734 mmHg 82%
23:00 +19°C° 0 mm 3 mps 734 mmHg 83%

12 July, Sunday

Time Temperature Precipitation Wind Pressure Humidity
00:00 +19°C° 0 mm 3 mps 734 mmHg 82%
01:00 +18°C° 0 mm 3 mps 734 mmHg 81%
02:00 +18°C° 0 mm 3 mps 734 mmHg 79%
03:00 +18°C° 0 mm 3 mps 734 mmHg 81%
04:00 +17°C° 0 mm 2 mps 734 mmHg 82%
05:00 +17°C° 0 mm 2 mps 733 mmHg 83%
06:00 +19°C° 0 mm 2 mps 734 mmHg 79%
07:00 +20°C° 0 mm 2 mps 734 mmHg 75%
08:00 +23°C° 0 mm 2 mps 734 mmHg 71%
09:00 +24°C° 0 mm 2 mps 734 mmHg 67%
10:00 +26°C° 0 mm 2 mps 734 mmHg 63%
11:00 +27°C° 0 mm 2 mps 734 mmHg 59%
12:00 +27°C° 0.1 mm 3 mps 734 mmHg 58%
13:00 +27°C° 0.1 mm 3 mps 733 mmHg 58%
14:00 +28°C° 0.1 mm 3 mps 733 mmHg 58%
15:00 +27°C° 0.3 mm 3 mps 733 mmHg 61%
16:00 +27°C° 0.3 mm 3 mps 732 mmHg 64%
17:00 +26°C° 0.3 mm 3 mps 732 mmHg 67%
18:00 +25°C° 0.4 mm 3 mps 732 mmHg 73%
19:00 +23°C° 0.4 mm 2 mps 732 mmHg 80%
20:00 +20°C° 0.4 mm 2 mps 732 mmHg 87%
21:00 +19°C° 0.4 mm 3 mps 732 mmHg 90%
22:00 +17°C° 0.4 mm 4 mps 732 mmHg 93%
23:00 +15°C° 0.4 mm 5 mps 732 mmHg 96%

13 July, Monday

Time Temperature Precipitation Wind Pressure Humidity
00:00 +14°C° 0.5 mm 6 mps 732 mmHg 96%
01:00 +13°C° 0.5 mm 6 mps 732 mmHg 96%
02:00 +13°C° 0.5 mm 6 mps 732 mmHg 96%
03:00 +11°C° 1.3 mm 6 mps 732 mmHg 96%
04:00 +11°C° 1.3 mm 6 mps 732 mmHg 95%
05:00 +10°C° 1.3 mm 6 mps 732 mmHg 95%
06:00 +11°C° 0.3 mm 6 mps 732 mmHg 94%
07:00 +11°C° 0.3 mm 6 mps 733 mmHg 93%
08:00 +11°C° 0.3 mm 6 mps 733 mmHg 91%
09:00 +13°C° 0 mm 6 mps 733 mmHg 89%
10:00 +13°C° 0 mm 6 mps 733 mmHg 87%
11:00 +14°C° 0 mm 6 mps 733 mmHg 84%
12:00 +14°C° 0 mm 6 mps 733 mmHg 83%
13:00 +14°C° 0 mm 7 mps 733 mmHg 83%
14:00 +14°C° 0 mm 7 mps 733 mmHg 82%
15:00 +14°C° 0 mm 6 mps 733 mmHg 80%
16:00 +15°C° 0 mm 6 mps 733 mmHg 78%
17:00 +15°C° 0 mm 6 mps 733 mmHg 76%
18:00 +14°C° 0 mm 5 mps 732 mmHg 79%
19:00 +13°C° 0 mm 4 mps 732 mmHg 82%
20:00 +12°C° 0 mm 4 mps 732 mmHg 86%
21:00 +11°C° 0 mm 4 mps 732 mmHg 88%
22:00 +10°C° 0 mm 3 mps 732 mmHg 91%
23:00 +10°C° 0 mm 3 mps 732 mmHg 94%

14 July, Tuesday

Time Temperature Precipitation Wind Pressure Humidity
00:00 +9°C° 0 mm 3 mps 732 mmHg 94%
01:00 +9°C° 0 mm 3 mps 731 mmHg 95%
02:00 +9°C° 0 mm 3 mps 731 mmHg 95%
03:00 +8°C° 0 mm 4 mps 731 mmHg 95%
04:00 +8°C° 0 mm 4 mps 731 mmHg 94%
05:00 +8°C° 0 mm 4 mps 730 mmHg 94%
06:00 +9°C° 0 mm 5 mps 730 mmHg 90%
07:00 +10°C° 0 mm 5 mps 730 mmHg 86%
08:00 +11°C° 0 mm 6 mps 730 mmHg 83%
09:00 +11°C° 0.1 mm 6 mps 730 mmHg 84%
10:00 +11°C° 0.1 mm 7 mps 730 mmHg 86%
11:00 +11°C° 0.1 mm 7 mps 730 mmHg 88%
12:00 +11°C° 0.2 mm 7 mps 730 mmHg 88%
13:00 +11°C° 0.2 mm 7 mps 730 mmHg 88%
14:00 +11°C° 0.2 mm 7 mps 730 mmHg 88%
15:00 +12°C° 0.2 mm 7 mps 730 mmHg 88%
16:00 +12°C° 0.2 mm 7 mps 730 mmHg 88%
17:00 +12°C° 0.2 mm 7 mps 730 mmHg 88%
18:00 +12°C° 0.1 mm 7 mps 730 mmHg 88%
19:00 +12°C° 0.1 mm 7 mps 730 mmHg 88%
20:00 +12°C° 0.1 mm 7 mps 730 mmHg 88%
21:00 +13°C° 0 mm 6 mps 730 mmHg 89%
22:00 +11°C° 0 mm 6 mps 731 mmHg 90%
23:00 +11°C° 0 mm 6 mps 731 mmHg 91%
Show more